| time (UTC) | temp F | wind direction | speed MPH | gust MPH | rain 1hr in | rain 24hr in | rain mn in | humidity % | barometer mb |
| 20260503013049 | 83 | 360 | 1.0 | 0.0 | 0.00 | 0.00 | 0.00 | 4 | 1004.3 |
| 20260503012525 | 83 | 360 | 0.0 | 0.0 | 0.00 | 0.00 | 0.00 | 5 | 1004.3 |
| 20260503012004 | 84 | 360 | 1.0 | 0.0 | 0.00 | 0.00 | 0.00 | 5 | 1004.1 |
| 20260503011548 | 84 | 360 | 1.0 | 0.0 | 0.00 | 0.00 | 0.00 | 4 | 1004.3 |
| 20260503011025 | 84 | 128 | 1.0 | 0.0 | 0.00 | 0.00 | 0.00 | 4 | 1004.1 |
| 20260503010502 | 83 | 360 | 2.0 | 0.0 | 0.00 | 0.00 | 0.00 | 4 | 1004.4 |
| 20260503010050 | 83 | 360 | 1.0 | 0.0 | 0.00 | 0.00 | 0.00 | 4 | 1004.4 |
| 20260503005526 | 84 | 360 | 0.0 | 0.0 | 0.00 | 0.00 | 0.00 | 4 | 1004.7 |
| 20260503005004 | 84 | 360 | 1.0 | 0.0 | 0.00 | 0.00 | 0.00 | 5 | 1004.8 |
| 20260503004553 | 84 | 360 | 1.0 | 0.0 | 0.00 | 0.00 | 0.00 | 4 | 1004.9 |
| 20260503004031 | 85 | 360 | 0.0 | 0.0 | 0.00 | 0.00 | 0.00 | 4 | 1004.8 |
| 20260503003511 | 85 | 360 | 2.0 | 0.0 | 0.00 | 0.00 | 0.00 | 5 | 1004.8 |
| 20260503003057 | 84 | 360 | 3.0 | 0.0 | 0.00 | 0.00 | 0.00 | 5 | 1005.0 |
| 20260503002535 | 83 | 360 | 2.0 | 0.0 | 0.00 | 0.00 | 0.00 | 4 | 1005.1 |
| 20260503002017 | 83 | 360 | 2.0 | 0.0 | 0.00 | 0.00 | 0.00 | 4 | 1005.1 |
| 20260503001602 | 84 | 360 | 2.0 | 0.0 | 0.00 | 0.00 | 0.00 | 5 | 1005.2 |
| 20260503001040 | 85 | 360 | 2.0 | 0.0 | 0.00 | 0.00 | 0.00 | 4 | 1005.0 |
| 20260503000523 | 85 | 82 | 2.0 | 0.0 | 0.00 | 0.00 | 0.00 | 5 | 1005.1 |
| 20260503000002 | 85 | 360 | 1.0 | 0.0 | 0.00 | 0.00 | 0.00 | 4 | 1004.6 |
| 20260502235553 | 85 | 360 | 1.0 | 0.0 | 0.00 | 0.00 | 0.00 | 4 | 1004.6 |
| 20260502235031 | 85 | 360 | 1.0 | 0.0 | 0.00 | 0.00 | 0.00 | 5 | 1004.4 |
| 20260502234520 | 86 | 115 | 1.0 | 0.0 | 0.00 | 0.00 | 0.00 | 5 | 1004.5 |
| 20260502234103 | 86 | 93 | 1.0 | 0.0 | 0.00 | 0.00 | 0.00 | 4 | 1004.5 |
| 20260502233541 | 87 | 84 | 1.0 | 0.0 | 0.00 | 0.00 | 0.00 | 4 | 1004.4 |
| 20260502233030 | 87 | 119 | 1.0 | 0.0 | 0.00 | 0.00 | 0.00 | 5 | 1004.7 |
| 20260502232501 | 86 | 42 | 1.0 | 0.0 | 0.00 | 0.00 | 0.00 | 4 | 1004.7 |
| 20260502232047 | 86 | 79 | 1.0 | 0.0 | 0.00 | 0.00 | 0.00 | 5 | 1004.6 |
| 20260502231526 | 87 | 186 | 1.0 | 0.0 | 0.00 | 0.00 | 0.00 | 4 | 1004.5 |
| 20260502231003 | 87 | 63 | 1.0 | 0.0 | 0.00 | 0.00 | 0.00 | 4 | 1004.7 |
| 20260502230546 | 87 | 38 | 1.0 | 0.0 | 0.00 | 0.00 | 0.00 | 5 | 1004.6 |
| 20260502230035 | 86 | 241 | 1.0 | 0.0 | 0.00 | 0.00 | 0.00 | 5 | 1004.8 |
| 20260502225514 | 86 | 107 | 1.0 | 0.0 | 0.00 | 0.00 | 0.00 | 4 | 1004.7 |
| 20260502225059 | 86 | 158 | 1.0 | 0.0 | 0.00 | 0.00 | 0.00 | 5 | 1004.8 |
| 20260502224543 | 86 | 223 | 1.0 | 0.0 | 0.00 | 0.00 | 0.00 | 5 | 1004.8 |
| 20260502224016 | 86 | 84 | 1.0 | 0.0 | 0.00 | 0.00 | 0.00 | 6 | 1004.9 |
| 20260502223603 | 87 | 78 | 2.0 | 0.0 | 0.00 | 0.00 | 0.00 | 5 | 1004.8 |
| 20260502223043 | 86 | 98 | 2.0 | 0.0 | 0.00 | 0.00 | 0.00 | 5 | 1005.0 |
| 20260502222521 | 87 | 360 | 2.0 | 0.0 | 0.00 | 0.00 | 0.00 | 5 | 1005.1 |
| 20260502222103 | 88 | 360 | 2.0 | 0.0 | 0.00 | 0.00 | 0.00 | 5 | 1005.2 |
| 20260502221539 | 87 | 360 | 2.0 | 0.0 | 0.00 | 0.00 | 0.00 | 5 | 1005.4 |
| 20260502221020 | 85 | 360 | 2.0 | 0.0 | 0.00 | 0.00 | 0.00 | 6 | 1005.8 |
| 20260502220605 | 84 | 360 | 1.0 | 0.0 | 0.00 | 0.00 | 0.00 | 6 | 1005.9 |
| 20260502220041 | 86 | 360 | 1.0 | 0.0 | 0.00 | 0.00 | 0.00 | 5 | 1005.8 |
| 20260502215518 | 87 | 360 | 2.0 | 0.0 | 0.00 | 0.00 | 0.00 | 6 | 1006.1 |
| 20260502215002 | 86 | 360 | 2.0 | 0.0 | 0.00 | 0.00 | 0.00 | 5 | 1006.3 |
| 20260502214555 | 87 | 360 | 2.0 | 0.0 | 0.00 | 0.00 | 0.00 | 6 | 1006.3 |
| 20260502214024 | 87 | 360 | 2.0 | 0.0 | 0.00 | 0.00 | 0.00 | 5 | 1006.2 |
| 20260502213504 | 88 | 360 | 1.0 | 0.0 | 0.00 | 0.00 | 0.00 | 6 | 1006.2 |
| 20260502213048 | 88 | 360 | 1.0 | 0.0 | 0.00 | 0.00 | 0.00 | 7 | 1006.4 |
| 20260502212524 | 87 | 360 | 1.0 | 0.0 | 0.00 | 0.00 | 0.00 | 6 | 1006.7 |
| 20260502212004 | 86 | 360 | 3.0 | 0.0 | 0.00 | 0.00 | 0.00 | 6 | 1006.9 |
| 20260502211543 | 85 | 360 | 3.0 | 0.0 | 0.00 | 0.00 | 0.00 | 6 | 1007.1 |
| 20260502211026 | 86 | 360 | 2.0 | 0.0 | 0.00 | 0.00 | 0.00 | 6 | 1007.0 |
| 20260502210503 | 85 | 360 | 2.0 | 0.0 | 0.00 | 0.00 | 0.00 | 7 | 1007.1 |
| 20260502210050 | 83 | 360 | 2.0 | 0.0 | 0.00 | 0.00 | 0.00 | 8 | 1007.3 |
| 20260502205530 | 85 | 360 | 3.0 | 0.0 | 0.00 | 0.00 | 0.00 | 6 | 1007.1 |
| 20260502205007 | 85 | 360 | 3.0 | 0.0 | 0.00 | 0.00 | 0.00 | 7 | 1006.9 |
| 20260502204554 | 85 | 360 | 3.0 | 0.0 | 0.00 | 0.00 | 0.00 | 6 | 1007.0 |
| 20260502204033 | 83 | 360 | 5.0 | 0.0 | 0.00 | 0.00 | 0.00 | 7 | 1007.3 |
| 20260502203521 | 84 | 360 | 4.0 | 0.0 | 0.00 | 0.00 | 0.00 | 6 | 1007.3 |
| 20260502203058 | 86 | 360 | 1.0 | 0.0 | 0.00 | 0.00 | 0.00 | 6 | 1007.1 |
| 20260502202535 | 87 | 360 | 1.0 | 0.0 | 0.00 | 0.00 | 0.00 | 6 | 1007.2 |
| 20260502202012 | 85 | 360 | 2.0 | 0.0 | 0.00 | 0.00 | 0.00 | 6 | 1007.4 |
| 20260502201557 | 85 | 360 | 2.0 | 0.0 | 0.00 | 0.00 | 0.00 | 6 | 1007.7 |
| 20260502201040 | 85 | 360 | 2.0 | 0.0 | 0.00 | 0.00 | 0.00 | 5 | 1007.7 |
| 20260502200523 | 85 | 360 | 2.0 | 0.0 | 0.00 | 0.00 | 0.00 | 6 | 1007.7 |
| 20260502200002 | 85 | 360 | 2.0 | 0.0 | 0.00 | 0.00 | 0.00 | 7 | 1007.7 |
| 20260502195542 | 84 | 360 | 3.0 | 0.0 | 0.00 | 0.00 | 0.00 | 7 | 1007.9 |
| 20260502195027 | 84 | 360 | 3.0 | 0.0 | 0.00 | 0.00 | 0.00 | 8 | 1008.0 |
| 20260502194514 | 83 | 360 | 2.0 | 0.0 | 0.00 | 0.00 | 0.00 | 7 | 1008.0 |
| 20260502194055 | 84 | 360 | 1.0 | 0.0 | 0.00 | 0.00 | 0.00 | 7 | 1008.0 |
| 20260502193536 | 86 | 360 | 2.0 | 0.0 | 0.00 | 0.00 | 0.00 | 8 | 1008.0 |
| 20260502193015 | 84 | 360 | 3.0 | 0.0 | 0.00 | 0.00 | 0.00 | 9 | 1008.3 |
| 20260502192600 | 83 | 360 | 2.0 | 0.0 | 0.00 | 0.00 | 0.00 | 8 | 1008.4 |
| 20260502192035 | 85 | 360 | 1.0 | 0.0 | 0.00 | 0.00 | 0.00 | 9 | 1008.3 |
| 20260502191516 | 85 | 360 | 2.0 | 0.0 | 0.00 | 0.00 | 0.00 | 8 | 1008.3 |
| 20260502191057 | 83 | 360 | 3.0 | 0.0 | 0.00 | 0.00 | 0.00 | 8 | 1008.5 |
| 20260502190540 | 83 | 360 | 2.0 | 0.0 | 0.00 | 0.00 | 0.00 | 7 | 1008.6 |
| 20260502190016 | 84 | 360 | 1.0 | 0.0 | 0.00 | 0.00 | 0.00 | 9 | 1008.5 |
| 20260502185558 | 85 | 360 | 1.0 | 0.0 | 0.00 | 0.00 | 0.00 | 8 | 1008.6 |
| 20260502185035 | 83 | 360 | 2.0 | 0.0 | 0.00 | 0.00 | 0.00 | 10 | 1008.8 |
| 20260502184513 | 81 | 360 | 2.0 | 0.0 | 0.00 | 0.00 | 0.00 | 9 | 1009.0 |
| 20260502184055 | 83 | 360 | 2.0 | 0.0 | 0.00 | 0.00 | 0.00 | 9 | 1009.1 |
| 20260502183532 | 83 | 360 | 2.0 | 0.0 | 0.00 | 0.00 | 0.00 | 10 | 1009.1 |
| 20260502183013 | 82 | 360 | 2.0 | 0.0 | 0.00 | 0.00 | 0.00 | 9 | 1009.4 |
| 20260502182559 | 83 | 360 | 3.0 | 0.0 | 0.00 | 0.00 | 0.00 | 8 | 1009.4 |
| 20260502182041 | 82 | 360 | 2.0 | 0.0 | 0.00 | 0.00 | 0.00 | 9 | 1009.4 |
| 20260502181528 | 84 | 360 | 1.0 | 0.0 | 0.00 | 0.00 | 0.00 | 9 | 1009.4 |
| 20260502181101 | 83 | 360 | 2.0 | 0.0 | 0.00 | 0.00 | 0.00 | 10 | 1009.4 |
| 20260502180544 | 82 | 360 | 2.0 | 0.0 | 0.00 | 0.00 | 0.00 | 10 | 1009.6 |
| 20260502164053 | 79 | 360 | 1.0 | 0.0 | 0.00 | 0.00 | 0.00 | 11 | 1009.8 |
| 20260502163531 | 78 | 360 | 1.0 | 0.0 | 0.00 | 0.00 | 0.00 | 12 | 1009.8 |
| 20260502163016 | 78 | 360 | 1.0 | 0.0 | 0.00 | 0.00 | 0.00 | 14 | 1009.8 |
| 20260502162548 | 79 | 360 | 1.0 | 0.0 | 0.00 | 0.00 | 0.00 | 13 | 1009.8 |
| 20260502162024 | 79 | 360 | 1.0 | 0.0 | 0.00 | 0.00 | 0.00 | 13 | 1009.8 |
| 20260502161507 | 78 | 360 | 1.0 | 0.0 | 0.00 | 0.00 | 0.00 | 13 | 1009.8 |
| 20260502161051 | 77 | 360 | 1.0 | 0.0 | 0.00 | 0.00 | 0.00 | 13 | 1009.9 |
| 20260502160529 | 77 | 360 | 0.0 | 0.0 | 0.00 | 0.00 | 0.00 | 12 | 1009.9 |
| 20260502152020 | 72 | 360 | 2.0 | 0.0 | 0.00 | 0.00 | 0.00 | 14 | 1010.1 |
| 20260502151632 | 72 | 360 | 2.0 | 0.0 | 0.00 | 0.00 | 0.00 | 14 | 1010.1 |
| 20260502151041 | 71 | 360 | 2.0 | 0.0 | 0.00 | 0.00 | 0.00 | 15 | 1010.1 |
| 20260502150519 | 70 | 360 | 2.0 | 0.0 | 0.00 | 0.00 | 0.00 | 14 | 1010.1 |
| 20260502150111 | 70 | 360 | 2.0 | 0.0 | 0.00 | 0.00 | 0.00 | 15 | 1010.2 |
| 20260502130519 | 57 | 360 | 1.0 | 0.0 | 0.00 | 0.00 | 0.00 | 19 | 1010.0 |
| 20260502123518 | 60 | 360 | 1.0 | 0.0 | 0.00 | 0.00 | 0.00 | 17 | 1009.1 |
| 20260502123108 | 60 | 360 | 1.0 | 0.0 | 0.00 | 0.00 | 0.00 | 17 | 1009.1 |
| 20260502122541 | 60 | 360 | 1.0 | 0.0 | 0.00 | 0.00 | 0.00 | 17 | 1009.1 |
| 20260502122023 | 59 | 360 | 1.0 | 0.0 | 0.00 | 0.00 | 0.00 | 17 | 1009.2 |
| 20260502121502 | 59 | 360 | 0.0 | 0.0 | 0.00 | 0.00 | 0.00 | 17 | 1009.1 |
| 20260502121043 | 60 | 360 | 1.0 | 0.0 | 0.00 | 0.00 | 0.00 | 17 | 1009.0 |
| 20260502120521 | 61 | 360 | 1.0 | 0.0 | 0.00 | 0.00 | 0.00 | 16 | 1008.9 |
| 20260502115544 | 63 | 360 | 0.0 | 0.0 | 0.00 | 0.00 | 0.00 | 16 | 1008.4 |
| 20260502115021 | 63 | 360 | 0.0 | 0.0 | 0.00 | 0.00 | 0.00 | 16 | 1008.4 |
| 20260502114613 | 64 | 360 | 0.0 | 0.0 | 0.00 | 0.00 | 0.00 | 15 | 1008.4 |
| 20260502114046 | 64 | 360 | 0.0 | 0.0 | 0.00 | 0.00 | 0.00 | 15 | 1008.4 |
| 20260502113529 | 65 | 360 | 0.0 | 0.0 | 0.00 | 0.00 | 0.00 | 15 | 1008.4 |
| 20260502113013 | 65 | 360 | 1.0 | 0.0 | 0.00 | 0.00 | 0.00 | 15 | 1008.4 |
| 20260502112556 | 64 | 360 | 1.0 | 0.0 | 0.00 | 0.00 | 0.00 | 15 | 1008.3 |
| 20260502112036 | 64 | 360 | 1.0 | 0.0 | 0.00 | 0.00 | 0.00 | 15 | 1008.3 |
| 20260502111514 | 66 | 360 | 1.0 | 0.0 | 0.00 | 0.00 | 0.00 | 15 | 1008.2 |
| 20260502111100 | 65 | 360 | 1.0 | 0.0 | 0.00 | 0.00 | 0.00 | 14 | 1008.2 |
| 20260502110538 | 65 | 360 | 1.0 | 0.0 | 0.00 | 0.00 | 0.00 | 15 | 1008.3 |
| 20260502110020 | 65 | 360 | 1.0 | 0.0 | 0.00 | 0.00 | 0.00 | 14 | 1008.1 |
| 20260502105501 | 65 | 360 | 0.0 | 0.0 | 0.00 | 0.00 | 0.00 | 14 | 1008.3 |
| 20260502105049 | 66 | 360 | 0.0 | 0.0 | 0.00 | 0.00 | 0.00 | 14 | 1008.2 |
| 20260502104533 | 66 | 360 | 1.0 | 0.0 | 0.00 | 0.00 | 0.00 | 13 | 1008.3 |
| 20260502104015 | 66 | 360 | 1.0 | 0.0 | 0.00 | 0.00 | 0.00 | 13 | 1008.3 |
| 20260502103602 | 65 | 360 | 1.0 | 0.0 | 0.00 | 0.00 | 0.00 | 14 | 1008.2 |
| 20260502103044 | 64 | 360 | 1.0 | 0.0 | 0.00 | 0.00 | 0.00 | 14 | 1008.3 |
| 20260502102529 | 65 | 360 | 1.0 | 0.0 | 0.00 | 0.00 | 0.00 | 13 | 1008.3 |
| 20260502102005 | 64 | 360 | 1.0 | 0.0 | 0.00 | 0.00 | 0.00 | 13 | 1008.3 |
| 20260502101559 | 64 | 360 | 1.0 | 0.0 | 0.00 | 0.00 | 0.00 | 13 | 1008.4 |
| 20260502101029 | 64 | 360 | 0.0 | 0.0 | 0.00 | 0.00 | 0.00 | 13 | 1008.4 |
| 20260502100508 | 64 | 360 | 0.0 | 0.0 | 0.00 | 0.00 | 0.00 | 13 | 1008.4 |
| 20260502100127 | 64 | 360 | 0.0 | 0.0 | 0.00 | 0.00 | 0.00 | 13 | 1008.3 |
| 20260502091041 | 67 | 360 | 0.0 | 0.0 | 0.00 | 0.00 | 0.00 | 12 | 1008.3 |
| 20260502090517 | 68 | 360 | 1.0 | 0.0 | 0.00 | 0.00 | 0.00 | 12 | 1008.3 |
| 20260502090130 | 68 | 360 | 1.0 | 0.0 | 0.00 | 0.00 | 0.00 | 12 | 1008.4 |
| 20260502071007 | 70 | 360 | 0.0 | 0.0 | 0.00 | 0.00 | 0.00 | 11 | 1008.0 |
| 20260502070553 | 70 | 360 | 1.0 | 0.0 | 0.00 | 0.00 | 0.00 | 11 | 1007.9 |
| 20260502070029 | 71 | 360 | 2.0 | 0.0 | 0.00 | 0.00 | 0.00 | 10 | 1008.0 |
| 20260502065511 | 71 | 360 | 2.0 | 0.0 | 0.00 | 0.00 | 0.00 | 10 | 1008.0 |
| 20260502065057 | 72 | 360 | 4.0 | 0.0 | 0.00 | 0.00 | 0.00 | 9 | 1007.9 |
| 20260502064541 | 73 | 360 | 6.0 | 0.0 | 0.00 | 0.00 | 0.00 | 9 | 1007.8 |
| 20260502064025 | 73 | 360 | 6.0 | 0.0 | 0.00 | 0.00 | 0.00 | 9 | 1007.7 |
| 20260502063500 | 73 | 360 | 5.0 | 0.0 | 0.00 | 0.00 | 0.00 | 9 | 1007.6 |
| 20260502063043 | 73 | 360 | 6.0 | 0.0 | 0.00 | 0.00 | 0.00 | 9 | 1007.6 |
| 20260502062522 | 73 | 360 | 6.0 | 0.0 | 0.00 | 0.00 | 0.00 | 9 | 1007.5 |
| 20260502062000 | 73 | 360 | 6.0 | 0.0 | 0.00 | 0.00 | 0.00 | 9 | 1007.5 |
| 20260502061548 | 74 | 360 | 6.0 | 0.0 | 0.00 | 0.00 | 0.00 | 9 | 1007.4 |
| 20260502061022 | 74 | 360 | 6.0 | 0.0 | 0.00 | 0.00 | 0.00 | 8 | 1007.2 |
| 20260502060503 | 74 | 360 | 6.0 | 0.0 | 0.00 | 0.00 | 0.00 | 8 | 1007.1 |
| 20260502060049 | 73 | 360 | 6.0 | 0.0 | 0.00 | 0.00 | 0.00 | 9 | 1007.1 |
| 20260502055534 | 74 | 360 | 6.0 | 0.0 | 0.00 | 0.00 | 0.00 | 9 | 1007.0 |
| 20260502055016 | 74 | 360 | 6.0 | 0.0 | 0.00 | 0.00 | 0.00 | 9 | 1007.0 |
| 20260502054501 | 74 | 360 | 6.0 | 0.0 | 0.00 | 0.00 | 0.00 | 9 | 1007.0 |
| 20260502054047 | 74 | 360 | 6.0 | 0.0 | 0.00 | 0.00 | 0.00 | 9 | 1007.0 |
| 20260502053532 | 74 | 360 | 7.0 | 0.0 | 0.00 | 0.00 | 0.00 | 9 | 1007.0 |
| 20260502053017 | 74 | 360 | 7.0 | 0.0 | 0.00 | 0.00 | 0.00 | 8 | 1007.0 |
| 20260502052502 | 75 | 360 | 9.0 | 0.0 | 0.00 | 0.00 | 0.00 | 8 | 1007.0 |
| 20260502052048 | 75 | 360 | 8.0 | 0.0 | 0.00 | 0.00 | 0.00 | 8 | 1007.0 |
| 20260502051532 | 75 | 360 | 7.0 | 0.0 | 0.00 | 0.00 | 0.00 | 8 | 1006.8 |
| 20260502051007 | 75 | 360 | 7.0 | 0.0 | 0.00 | 0.00 | 0.00 | 9 | 1006.7 |
| 20260502050553 | 75 | 360 | 7.0 | 0.0 | 0.00 | 0.00 | 0.00 | 9 | 1006.8 |
| 20260502050036 | 74 | 360 | 6.0 | 0.0 | 0.00 | 0.00 | 0.00 | 9 | 1006.7 |
| 20260502045522 | 74 | 360 | 6.0 | 0.0 | 0.00 | 0.00 | 0.00 | 9 | 1006.9 |
| 20260502045004 | 75 | 360 | 6.0 | 0.0 | 0.00 | 0.00 | 0.00 | 9 | 1006.7 |
| 20260502044550 | 75 | 360 | 6.0 | 0.0 | 0.00 | 0.00 | 0.00 | 9 | 1006.8 |
| 20260502044031 | 75 | 360 | 5.0 | 0.0 | 0.00 | 0.00 | 0.00 | 9 | 1006.6 |
| 20260502043513 | 75 | 360 | 5.0 | 0.0 | 0.00 | 0.00 | 0.00 | 9 | 1006.5 |
| 20260502043104 | 75 | 360 | 6.0 | 0.0 | 0.00 | 0.00 | 0.00 | 9 | 1006.5 |
| 20260502042543 | 76 | 360 | 6.0 | 0.0 | 0.00 | 0.00 | 0.00 | 9 | 1006.5 |
| 20260502042022 | 76 | 360 | 7.0 | 0.0 | 0.00 | 0.00 | 0.00 | 9 | 1006.3 |
| 20260502041503 | 76 | 360 | 8.0 | 0.0 | 0.00 | 0.00 | 0.00 | 9 | 1006.2 |
| 20260502041045 | 76 | 360 | 8.0 | 0.0 | 0.00 | 0.00 | 0.00 | 8 | 1006.2 |
| 20260502040526 | 76 | 360 | 9.0 | 0.0 | 0.00 | 0.00 | 0.00 | 8 | 1006.1 |
| 20260502040014 | 77 | 360 | 8.0 | 0.0 | 0.00 | 0.00 | 0.00 | 8 | 1006.0 |
| 20260502035559 | 77 | 360 | 8.0 | 0.0 | 0.00 | 0.00 | 0.00 | 8 | 1006.3 |
| 20260502035041 | 77 | 360 | 9.0 | 0.0 | 0.00 | 0.00 | 0.00 | 8 | 1006.3 |
| 20260502034529 | 77 | 360 | 10.0 | 0.0 | 0.00 | 0.00 | 0.00 | 8 | 1006.2 |
| 20260502034011 | 77 | 360 | 9.0 | 0.0 | 0.00 | 0.00 | 0.00 | 8 | 1006.0 |
| 20260502033554 | 77 | 360 | 9.0 | 0.0 | 0.00 | 0.00 | 0.00 | 8 | 1006.0 |
| 20260502033033 | 77 | 360 | 8.0 | 0.0 | 0.00 | 0.00 | 0.00 | 8 | 1005.9 |
| 20260502032512 | 77 | 360 | 8.0 | 0.0 | 0.00 | 0.00 | 0.00 | 8 | 1005.8 |
| 20260502032057 | 78 | 360 | 8.0 | 0.0 | 0.00 | 0.00 | 0.00 | 8 | 1005.8 |
| 20260502031536 | 78 | 360 | 7.0 | 0.0 | 0.00 | 0.00 | 0.00 | 8 | 1005.6 |
| 20260502031016 | 78 | 360 | 7.0 | 0.0 | 0.00 | 0.00 | 0.00 | 8 | 1005.6 |
| 20260502030501 | 78 | 360 | 9.0 | 0.0 | 0.00 | 0.00 | 0.00 | 8 | 1005.4 |
| 20260502030043 | 78 | 360 | 10.0 | 0.0 | 0.00 | 0.00 | 0.00 | 8 | 1005.3 |
| 20260502025528 | 79 | 360 | 9.0 | 0.0 | 0.00 | 0.00 | 0.00 | 8 | 1005.3 |
| 20260502025010 | 78 | 360 | 7.0 | 0.0 | 0.00 | 0.00 | 0.00 | 8 | 1005.2 |
| 20260502024603 | 79 | 360 | 6.0 | 0.0 | 0.00 | 0.00 | 0.00 | 8 | 1005.2 |
| 20260502024036 | 79 | 360 | 9.0 | 0.0 | 0.00 | 0.00 | 0.00 | 8 | 1005.0 |
| 20260502023515 | 79 | 360 | 7.0 | 0.0 | 0.00 | 0.00 | 0.00 | 8 | 1004.9 |
| 20260502023059 | 79 | 360 | 3.0 | 0.0 | 0.00 | 0.00 | 0.00 | 8 | 1004.8 |
| 20260502022537 | 80 | 360 | 1.0 | 0.0 | 0.00 | 0.00 | 0.00 | 8 | 1004.8 |
| 20260502022019 | 80 | 360 | 2.0 | 0.0 | 0.00 | 0.00 | 0.00 | 8 | 1004.8 |
| 20260502021503 | 80 | 360 | 2.0 | 0.0 | 0.00 | 0.00 | 0.00 | 8 | 1004.9 |
| 20260502021052 | 81 | 360 | 3.0 | 0.0 | 0.00 | 0.00 | 0.00 | 8 | 1004.8 |
| 20260502020538 | 81 | 360 | 4.0 | 0.0 | 0.00 | 0.00 | 0.00 | 8 | 1004.8 |
| 20260502020020 | 81 | 360 | 4.0 | 0.0 | 0.00 | 0.00 | 0.00 | 8 | 1004.7 |
| 20260502015503 | 81 | 360 | 4.0 | 0.0 | 0.00 | 0.00 | 0.00 | 8 | 1004.9 |
| 20260502015048 | 81 | 360 | 5.0 | 0.0 | 0.00 | 0.00 | 0.00 | 8 | 1004.9 |
| 20260502014532 | 82 | 360 | 6.0 | 0.0 | 0.00 | 0.00 | 0.00 | 8 | 1004.8 |
| 20260502014006 | 82 | 360 | 4.0 | 0.0 | 0.00 | 0.00 | 0.00 | 8 | 1004.7 |
| 20260502013555 | 82 | 360 | 3.0 | 0.0 | 0.00 | 0.00 | 0.00 | 8 | 1004.6 |